Погода в Барбасене

Бразилия     21°12′55″S   43°44′56″W
темп.,
°C
ветер,
м/с
пор.,
м/с
влажн.,
%
обл.,
%
осадки,
мм/ч
давл.,
гПа
погр.,
м
26 февраля, пт
пт2600:00+17в2696100 1.2 1013185
03:00+16в129591 1.2 101224
06:00+16в279983 0.0 1012232
09:00+20св479191 0.1 1014655
12:00+22св4580100 0.1 1013821
15:00+22всв448595 1.2 1011633
18:00+18св4898100 4.8 1013457
21:00+16св3898100 9.9 1015358
27 февраля, сб
сб2700:00+16св1498100 7.5 1015168
03:00+16всв2598100 8.7 1014221
06:00+16св2799100 0.4 1015325
09:00+18св4692100 0.4 1016540
12:00+22всв567397 0.0 1016789
15:00+20всв478299 0.0 1013709
18:00+18в2692100 0.0 1013394
21:00+16вюв2399100 0.0 1015104
28 февраля, вс
вс2800:00+16в2398100 0.0 1016117
03:00+16в2699100 0.0 1014223
06:00+16всв2699100 0.1 1016361
09:00+19св478698 0.2 1016650
12:00+22св467587 0.0 1015981
15:00+22св467293 0.1 1012925
18:00+19в3592100 0.1 1012259
21:00+17в259997 0.1 1015174
1 марта, пн
пн100:00+17вюв259985 0.0 1015217
03:00+17в239886 0.0 1014163
06:00+16всв269985 0.1 1015226
09:00+19св368784 0.1 1015519
12:00+22св3477100 0.0 1015791
15:00+23св4671100 0.1 1012888
18:00+19всв379082 0.0 1012396
21:00+17всв249891 0.0 1014118
2 марта, вт
вт200:00+16всв269965 0.0 1015196
03:00+15св399945 0.0 1015348
06:00+15св399963 0.0 1016294
09:00+20ссв357940 0.0 1017497
12:00+23ссв44650 0.0 10161045
15:00+23св33680 0.0 10131267
18:00+19всв35879 0.0 1013140
21:00+17всв25966 0.0 1016114